Wetterdaten: aktuell Donnerstag, 21.03.2019 05:12
Datum Zeit Temp. I. Temp. 2m Temp. 5cm Temp. -10cm Feuchte I. Feuchte 2m Luftdruck Regen Wind Richtung Richtung Taupunkt Windchill Windben
21.03.2019 05:12 22,0 C -3,5 C -4,3 C 4,8 C 49 % 80 % 1035,8 hPa 0,0 l/m 0,3 km/h (0 Bft) O-SO 112 -6,4 C -3,5 C 0,0 km/h (0 Bft)
21.03.2019 05:10 22,0 C -3,5 C -4,6 C 4,8 C 49 % 80 % 1035,8 hPa 0,0 l/m 0,5 km/h (0 Bft) SO 135 -6,4 C -3,5 C 0,0 km/h (0 Bft)
21.03.2019 05:08 22,0 C -3,5 C -4,3 C 4,8 C 49 % 80 % 1035,8 hPa 0,0 l/m 0,6 km/h (0 Bft) SO 135 -6,4 C -3,5 C 0,0 km/h (0 Bft)
21.03.2019 05:06 22,0 C -3,5 C -4,0 C 4,9 C 49 % 80 % 1035,8 hPa 0,0 l/m 0,6 km/h (0 Bft) SO 135 -6,4 C -3,5 C 0,0 km/h (0 Bft)
21.03.2019 05:04 22,0 C -3,6 C -4,0 C 4,9 C 49 % 80 % 1035,8 hPa 0,0 l/m 0,5 km/h (0 Bft) S-SW 202 -6,5 C -3,6 C 0,0 km/h (0 Bft)
21.03.2019 05:01 22,0 C -3,6 C -4,0 C 4,9 C 49 % 79 % 1035,8 hPa 0,0 l/m 0,3 km/h (0 Bft) S-SO 157 -6,7 C -3,6 C 0,0 km/h (0 Bft)
21.03.2019 05:00 22,0 C -3,6 C -4,1 C 4,9 C 49 % 79 % 1035,8 hPa 0,0 l/m 0,3 km/h (0 Bft) SW 225 -6,7 C -3,6 C 1,9 km/h (1 Bft)
21.03.2019 04:58 22,0 C -3,7 C -4,1 C 4,9 C 49 % 79 % 1035,8 hPa 0,0 l/m 0,0 km/h (0 Bft) S-SW 202 -6,8 C -3,7 C 0,0 km/h (0 Bft)
21.03.2019 04:56 22,0 C -3,7 C -4,3 C 4,9 C 49 % 79 % 1035,8 hPa 0,0 l/m 0,0 km/h (0 Bft) S-SW 202 -6,8 C -3,7 C 0,0 km/h (0 Bft)
21.03.2019 04:54 22,0 C -3,7 C -4,5 C 4,9 C 49 % 79 % 1035,8 hPa 0,0 l/m 0,0 km/h (0 Bft) S 180 -6,8 C -3,7 C 0,0 km/h (0 Bft)
21.03.2019 04:52 22,0 C -3,9 C -4,9 C 4,9 C 49 % 79 % 1035,8 hPa 0,0 l/m 0,2 km/h (0 Bft) NW 315 -7,0 C -3,9 C 0,0 km/h (0 Bft)
21.03.2019 04:50 22,0 C -3,9 C -4,8 C 4,9 C 49 % 79 % 1035,8 hPa 0,0 l/m 0,3 km/h (0 Bft) NW 315 -7,0 C -3,9 C 0,0 km/h (0 Bft)
21.03.2019 04:48 22,0 C -3,9 C -4,8 C 4,9 C 49 % 79 % 1035,8 hPa 0,0 l/m 0,3 km/h (0 Bft) NW 315 -7,0 C -3,9 C 0,0 km/h (0 Bft)
21.03.2019 04:46 22,0 C -3,7 C -5,1 C 4,9 C 49 % 79 % 1035,8 hPa 0,0 l/m 0,3 km/h (0 Bft) N-NW 337 -6,8 C -3,7 C 0,0 km/h (0 Bft)
21.03.2019 04:44 22,0 C -3,7 C -4,9 C 4,9 C 49 % 79 % 1035,8 hPa 0,0 l/m 0,3 km/h (0 Bft) N-NW 337 -6,8 C -3,7 C 0,0 km/h (0 Bft)
21.03.2019 04:42 22,0 C -3,7 C -4,9 C 4,9 C 49 % 79 % 1035,8 hPa 0,0 l/m 0,3 km/h (0 Bft) N-NW 337 -6,8 C -3,7 C 2,9 km/h (1 Bft)
21.03.2019 04:40 22,0 C -3,7 C -4,8 C 4,9 C 49 % 79 % 1035,8 hPa 0,0 l/m 0,2 km/h (0 Bft) N-NW 337 -6,8 C -3,7 C 1,9 km/h (1 Bft)
21.03.2019 04:38 22,0 C -3,7 C -4,7 C 4,9 C 49 % 79 % 1035,8 hPa 0,0 l/m 0,2 km/h (0 Bft) N-NW 337 -6,8 C -3,7 C 0,0 km/h (0 Bft)
21.03.2019 04:36 22,0 C -3,6 C -4,6 C 5,0 C 49 % 79 % 1035,8 hPa 0,0 l/m 0,2 km/h (0 Bft) N-NW 337 -6,7 C -3,6 C 0,0 km/h (0 Bft)
21.03.2019 04:34 22,0 C -3,6 C -4,6 C 5,0 C 49 % 79 % 1035,8 hPa 0,0 l/m 0,6 km/h (0 Bft) N-NW 337 -6,7 C -3,6 C 0,0 km/h (0 Bft)
21.03.2019 04:32 22,0 C -3,5 C -4,7 C 5,0 C 49 % 79 % 1036,3 hPa 0,0 l/m 0,6 km/h (0 Bft) N 360 -6,6 C -3,5 C 0,0 km/h (0 Bft)
21.03.2019 04:30 22,0 C -3,5 C -4,7 C 5,0 C 49 % 79 % 1036,3 hPa 0,0 l/m 0,6 km/h (0 Bft) N 360 -6,6 C -3,5 C 0,0 km/h (0 Bft)
21.03.2019 04:28 22,0 C -3,5 C -4,6 C 5,0 C 49 % 79 % 1036,3 hPa 0,0 l/m 0,6 km/h (0 Bft) N 360 -6,6 C -3,5 C 2,3 km/h (1 Bft)
21.03.2019 04:26 22,0 C -3,5 C -4,6 C 5,0 C 49 % 79 % 1036,3 hPa 0,0 l/m 0,6 km/h (0 Bft) N-NW 337 -6,6 C -3,5 C 0,0 km/h (0 Bft)
21.03.2019 04:24 22,0 C -3,5 C -4,6 C 5,0 C 49 % 79 % 1036,3 hPa 0,0 l/m 0,3 km/h (0 Bft) N-NW 337 -6,6 C -3,5 C 2,7 km/h (1 Bft)
21.03.2019 04:22 22,0 C -3,5 C -4,4 C 5,0 C 49 % 79 % 1036,3 hPa 0,0 l/m 0,2 km/h (0 Bft) N-NW 337 -6,6 C -3,5 C 0,0 km/h (0 Bft)
21.03.2019 04:20 22,0 C -3,5 C -4,4 C 5,0 C 49 % 79 % 1036,3 hPa 0,0 l/m 0,0 km/h (0 Bft) NW 315 -6,6 C -3,5 C 0,0 km/h (0 Bft)
21.03.2019 04:18 22,0 C -3,5 C -4,3 C 5,0 C 49 % 79 % 1036,3 hPa 0,0 l/m 0,0 km/h (0 Bft) N 360 -6,6 C -3,5 C 0,0 km/h (0 Bft)
21.03.2019 04:16 22,0 C -3,3 C -4,4 C 5,0 C 49 % 79 % 1036,3 hPa 0,0 l/m 0,0 km/h (0 Bft) N 360 -6,4 C -3,3 C 0,0 km/h (0 Bft)
21.03.2019 04:14 22,0 C -3,3 C -4,6 C 5,0 C 49 % 79 % 1036,3 hPa 0,0 l/m 0,0 km/h (0 Bft) O-NO 67 -6,4 C -3,3 C 0,0 km/h (0 Bft)
21.03.2019 04:12 22,0 C -3,2 C -4,7 C 5,0 C 49 % 79 % 1036,5 hPa 0,0 l/m 0,0 km/h (0 Bft) O-NO 67 -6,3 C -3,2 C 0,0 km/h (0 Bft)
21.03.2019 04:10 22,0 C -3,2 C -4,6 C 5,0 C 49 % 79 % 1036,5 hPa 0,0 l/m 0,0 km/h (0 Bft) O-NO 67 -6,3 C -3,2 C 0,0 km/h (0 Bft)
21.03.2019 04:08 22,0 C -3,2 C -4,6 C 5,1 C 49 % 79 % 1036,5 hPa 0,0 l/m 0,0 km/h (0 Bft) N 360 -6,3 C -3,2 C 0,0 km/h (0 Bft)
21.03.2019 04:06 22,0 C -3,2 C -4,6 C 5,1 C 49 % 79 % 1036,5 hPa 0,0 l/m 0,0 km/h (0 Bft) S-SO 157 -6,3 C -3,2 C 0,0 km/h (0 Bft)
21.03.2019 04:04 22,0 C -3,2 C -4,3 C 5,1 C 49 % 79 % 1036,5 hPa 0,0 l/m 0,0 km/h (0 Bft) S-SO 157 -6,3 C -3,2 C 0,0 km/h (0 Bft)
21.03.2019 04:02 22,0 C -3,2 C -4,2 C 5,1 C 49 % 78 % 1036,5 hPa 0,0 l/m 0,0 km/h (0 Bft) S-SO 157 -6,5 C -3,2 C 0,0 km/h (0 Bft)
21.03.2019 04:00 22,0 C -3,2 C -4,4 C 5,1 C 49 % 78 % 1036,5 hPa 0,0 l/m 0,0 km/h (0 Bft) S-SO 157 -6,5 C -3,2 C 0,0 km/h (0 Bft)
21.03.2019 03:58 22,0 C -3,2 C -4,4 C 5,1 C 49 % 78 % 1036,5 hPa 0,0 l/m 0,0 km/h (0 Bft) S-SO 157 -6,5 C -3,2 C 0,0 km/h (0 Bft)
21.03.2019 03:56 22,0 C -3,2 C -4,3 C 5,1 C 49 % 78 % 1036,5 hPa 0,0 l/m 0,0 km/h (0 Bft) S-SO 157 -6,5 C -3,2 C 0,0 km/h (0 Bft)
21.03.2019 03:54 22,0 C -3,1 C -4,3 C 5,1 C 49 % 78 % 1036,5 hPa 0,0 l/m 0,0 km/h (0 Bft) S-SO 157 -6,4 C -3,1 C 0,0 km/h (0 Bft)
21.03.2019 03:52 22,0 C -3,1 C -4,2 C 5,1 C 49 % 78 % 1036,6 hPa 0,0 l/m 0,0 km/h (0 Bft) W 270 -6,4 C -3,1 C 0,0 km/h (0 Bft)
21.03.2019 03:50 22,0 C -3,1 C -4,0 C 5,1 C 49 % 78 % 1036,6 hPa 0,0 l/m 0,0 km/h (0 Bft) W 270 -6,4 C -3,1 C 0,0 km/h (0 Bft)
21.03.2019 03:48 22,0 C -3,1 C -3,9 C 5,1 C 49 % 78 % 1036,6 hPa 0,0 l/m 0,0 km/h (0 Bft) W-NW 292 -6,4 C -3,1 C 0,0 km/h (0 Bft)
21.03.2019 03:46 22,0 C -3,1 C -4,2 C 5,1 C 49 % 78 % 1036,6 hPa 0,0 l/m 0,0 km/h (0 Bft) S-SO 157 -6,4 C -3,1 C 0,0 km/h (0 Bft)
21.03.2019 03:44 22,0 C -3,1 C -3,8 C 5,1 C 49 % 78 % 1036,6 hPa 0,0 l/m 0,0 km/h (0 Bft) S-SO 157 -6,4 C -3,1 C 0,0 km/h (0 Bft)
21.03.2019 03:42 22,0 C -3,1 C -3,8 C 5,1 C 49 % 78 % 1036,6 hPa 0,0 l/m 0,0 km/h (0 Bft) S-SO 157 -6,4 C -3,1 C 0,0 km/h (0 Bft)
21.03.2019 03:40 22,0 C -3,2 C -3,8 C 5,3 C 49 % 78 % 1036,6 hPa 0,0 l/m 0,0 km/h (0 Bft) S-SW 202 -6,5 C -3,2 C 0,0 km/h (0 Bft)
21.03.2019 03:38 22,0 C -3,2 C -3,8 C 5,3 C 49 % 78 % 1036,6 hPa 0,0 l/m 0,2 km/h (0 Bft) S 180 -6,5 C -3,2 C 0,0 km/h (0 Bft)
21.03.2019 03:34 22,0 C -3,3 C -4,3 C 5,3 C 49 % 77 % 1036,6 hPa 0,0 l/m 0,8 km/h (0 Bft) NW 315 -6,7 C -3,3 C 0,0 km/h (0 Bft)
21.03.2019 03:32 22,0 C -3,3 C -4,2 C 5,3 C 49 % 77 % 1036,5 hPa 0,0 l/m 1,0 km/h (0 Bft) NW 315 -6,7 C -3,3 C 0,0 km/h (0 Bft)
21.03.2019 03:30 22,0 C -3,3 C -4,3 C 5,3 C 49 % 77 % 1036,5 hPa 0,0 l/m 1,4 km/h (1 Bft) N 360 -6,7 C -3,3 C 2,1 km/h (1 Bft)
21.03.2019 03:28 22,0 C -3,3 C -4,6 C 5,3 C 49 % 77 % 1036,5 hPa 0,0 l/m 2,1 km/h (1 Bft) N 360 -6,7 C -3,3 C 3,1 km/h (1 Bft)
21.03.2019 03:26 22,0 C -3,3 C -4,4 C 5,3 C 49 % 77 % 1036,5 hPa 0,0 l/m 2,1 km/h (1 Bft) N-NO 22 -6,7 C -3,3 C 3,7 km/h (1 Bft)
21.03.2019 03:24 22,0 C -3,3 C -4,3 C 5,3 C 48 % 77 % 1036,5 hPa 0,0 l/m 2,3 km/h (1 Bft) N-NW 337 -6,7 C -3,3 C 0,0 km/h (0 Bft)
21.03.2019 03:22 22,0 C -3,2 C -4,3 C 5,3 C 49 % 77 % 1036,5 hPa 0,0 l/m 2,4 km/h (1 Bft) N-NW 337 -6,6 C -3,2 C 3,7 km/h (1 Bft)
21.03.2019 03:20 22,1 C -3,2 C -4,3 C 5,3 C 48 % 77 % 1036,5 hPa 0,0 l/m 2,1 km/h (1 Bft) NO 45 -6,6 C -3,2 C 5,2 km/h (1 Bft)
21.03.2019 03:18 22,0 C -3,2 C -4,3 C 5,3 C 48 % 76 % 1036,5 hPa 0,0 l/m 1,6 km/h (1 Bft) N 360 -6,8 C -3,2 C 3,9 km/h (1 Bft)
21.03.2019 03:16 22,0 C -3,2 C -4,3 C 5,3 C 49 % 76 % 1036,5 hPa 0,0 l/m 1,1 km/h (1 Bft) N-NO 22 -6,8 C -3,2 C 4,4 km/h (1 Bft)
21.03.2019 03:14 22,0 C -3,2 C -4,3 C 5,3 C 48 % 76 % 1036,5 hPa 0,0 l/m 0,6 km/h (0 Bft) N-NW 337 -6,8 C -3,2 C 4,8 km/h (1 Bft)
21.03.2019 03:12 22,0 C -3,2 C -4,7 C 5,4 C 48 % 76 % 1036,6 hPa 0,0 l/m 0,2 km/h (0 Bft) N-NW 337 -6,8 C -3,2 C 0,0 km/h (0 Bft)
21.03.2019 03:10 22,1 C -3,1 C -4,7 C 5,4 C 48 % 76 % 1036,6 hPa 0,0 l/m 0,3 km/h (0 Bft) N 360 -6,7 C -3,1 C 1,9 km/h (1 Bft)
21.03.2019 03:08 22,0 C -3,1 C -4,7 C 5,4 C 48 % 76 % 1036,6 hPa 0,0 l/m 0,2 km/h (0 Bft) N-NO 22 -6,7 C -3,1 C 0,0 km/h (0 Bft)
21.03.2019 03:06 22,0 C -3,1 C -4,7 C 5,4 C 48 % 76 % 1036,6 hPa 0,0 l/m 0,2 km/h (0 Bft) N-NW 337 -6,7 C -3,1 C 0,0 km/h (0 Bft)
21.03.2019 03:04 22,1 C -3,1 C -4,4 C 5,4 C 48 % 76 % 1036,6 hPa 0,0 l/m 0,2 km/h (0 Bft) N-NW 337 -6,7 C -3,1 C 0,0 km/h (0 Bft)
21.03.2019 03:02 22,1 C -3,1 C -4,4 C 5,4 C 48 % 76 % 1036,6 hPa 0,0 l/m 0,2 km/h (0 Bft) N-NW 337 -6,7 C -3,1 C 2,1 km/h (1 Bft)
21.03.2019 03:00 22,0 C -3,1 C -4,4 C 5,4 C 48 % 76 % 1036,6 hPa 0,0 l/m 0,0 km/h (0 Bft) N-NW 337 -6,7 C -3,1 C 2,1 km/h (1 Bft)
21.03.2019 02:58 22,0 C -3,1 C -4,7 C 5,4 C 49 % 75 % 1036,6 hPa 0,0 l/m 0,0 km/h (0 Bft) N-NW 337 -6,9 C -3,1 C 0,0 km/h (0 Bft)
21.03.2019 02:56 22,1 C -3,1 C -4,7 C 5,4 C 48 % 75 % 1036,6 hPa 0,0 l/m 0,0 km/h (0 Bft) N-NW 337 -6,9 C -3,1 C 0,0 km/h (0 Bft)
21.03.2019 02:54 22,1 C -2,9 C -4,6 C 5,4 C 48 % 75 % 1036,6 hPa 0,0 l/m 0,0 km/h (0 Bft) N-NW 337 -6,7 C -2,9 C 0,0 km/h (0 Bft)
21.03.2019 02:52 22,1 C -2,9 C -4,4 C 5,4 C 48 % 75 % 1036,8 hPa 0,0 l/m 0,0 km/h (0 Bft) N-NW 337 -6,7 C -2,9 C 0,0 km/h (0 Bft)
21.03.2019 02:50 22,1 C -2,9 C -4,4 C 5,4 C 48 % 75 % 1036,8 hPa 0,0 l/m 0,0 km/h (0 Bft) N-NW 337 -6,7 C -2,9 C 0,0 km/h (0 Bft)
21.03.2019 02:48 22,1 C -2,9 C -4,3 C 5,5 C 48 % 75 % 1036,8 hPa 0,0 l/m 0,0 km/h (0 Bft) N-NW 337 -6,7 C -2,9 C 0,0 km/h (0 Bft)
21.03.2019 02:46 22,1 C -2,9 C -4,4 C 5,5 C 48 % 75 % 1036,8 hPa 0,0 l/m 0,0 km/h (0 Bft) N-NW 337 -6,7 C -2,9 C 0,0 km/h (0 Bft)
21.03.2019 02:44 22,1 C -2,9 C -4,6 C 5,5 C 48 % 75 % 1036,8 hPa 0,0 l/m 0,0 km/h (0 Bft) N-NW 337 -6,7 C -2,9 C 0,0 km/h (0 Bft)
21.03.2019 02:42 22,1 C -2,8 C -4,6 C 5,4 C 48 % 75 % 1036,8 hPa 0,0 l/m 0,0 km/h (0 Bft) N-NW 337 -6,6 C -2,8 C 0,0 km/h (0 Bft)
21.03.2019 02:40 22,1 C -2,8 C -4,3 C 5,4 C 48 % 75 % 1036,8 hPa 0,0 l/m 0,0 km/h (0 Bft) N-NW 337 -6,6 C -2,8 C 0,0 km/h (0 Bft)
21.03.2019 02:38 22,1 C -2,7 C -4,3 C 5,4 C 48 % 75 % 1036,8 hPa 0,0 l/m 0,0 km/h (0 Bft) NW 315 -6,5 C -2,7 C 0,0 km/h (0 Bft)
21.03.2019 02:36 22,1 C -2,7 C -4,2 C 5,4 C 48 % 75 % 1036,8 hPa 0,0 l/m 0,0 km/h (0 Bft) NO 45 -6,5 C -2,7 C 0,0 km/h (0 Bft)
21.03.2019 02:34 22,1 C -2,7 C -4,3 C 5,4 C 48 % 75 % 1036,8 hPa 0,0 l/m 0,0 km/h (0 Bft) O 90 -6,5 C -2,7 C 0,0 km/h (0 Bft)
21.03.2019 02:32 22,1 C -2,7 C -4,0 C 5,4 C 48 % 75 % 1036,7 hPa 0,0 l/m 0,0 km/h (0 Bft) O-NO 67 -6,5 C -2,7 C 0,0 km/h (0 Bft)
21.03.2019 02:30 22,1 C -2,6 C -4,0 C 5,4 C 48 % 75 % 1036,7 hPa 0,0 l/m 0,0 km/h (0 Bft) O-NO 67 -6,4 C -2,6 C 0,0 km/h (0 Bft)
21.03.2019 02:28 22,1 C -2,6 C -4,2 C 5,4 C 48 % 75 % 1036,7 hPa 0,0 l/m 0,0 km/h (0 Bft) O 90 -6,4 C -2,6 C 0,0 km/h (0 Bft)
21.03.2019 02:26 22,1 C -2,4 C -4,2 C 5,4 C 48 % 75 % 1036,7 hPa 0,0 l/m 0,0 km/h (0 Bft) O 90 -6,2 C -2,4 C 0,0 km/h (0 Bft)
21.03.2019 02:24 22,1 C -2,4 C -4,0 C 5,5 C 48 % 75 % 1036,7 hPa 0,0 l/m 0,0 km/h (0 Bft) O 90 -6,2 C -2,4 C 0,0 km/h (0 Bft)
21.03.2019 02:22 22,1 C -2,4 C -3,9 C 5,5 C 48 % 75 % 1036,7 hPa 0,0 l/m 0,0 km/h (0 Bft) O 90 -6,2 C -2,4 C 0,0 km/h (0 Bft)
21.03.2019 02:20 22,1 C -2,4 C -3,9 C 5,5 C 48 % 75 % 1036,7 hPa 0,0 l/m 0,0 km/h (0 Bft) S-SO 157 -6,2 C -2,4 C 0,0 km/h (0 Bft)
21.03.2019 02:18 22,1 C -2,4 C -3,6 C 5,5 C 48 % 75 % 1036,7 hPa 0,0 l/m 0,0 km/h (0 Bft) SO 135 -6,2 C -2,4 C 0,0 km/h (0 Bft)
21.03.2019 02:16 22,1 C -2,4 C -3,9 C 5,5 C 48 % 75 % 1036,7 hPa 0,0 l/m 0,0 km/h (0 Bft) S-SO 157 -6,2 C -2,4 C 0,0 km/h (0 Bft)
21.03.2019 02:14 22,1 C -2,4 C -4,3 C 5,5 C 48 % 74 % 1036,7 hPa 0,0 l/m 0,0 km/h (0 Bft) S-SW 202 -6,4 C -2,4 C 0,0 km/h (0 Bft)
21.03.2019 02:12 22,1 C -2,3 C -4,3 C 5,5 C 48 % 74 % 1036,6 hPa 0,0 l/m 0,0 km/h (0 Bft) S-SW 202 -6,3 C -2,3 C 0,0 km/h (0 Bft)
21.03.2019 02:10 22,1 C -2,3 C -4,2 C 5,5 C 48 % 74 % 1036,6 hPa 0,0 l/m 0,3 km/h (0 Bft) S-SW 202 -6,3 C -2,3 C 0,0 km/h (0 Bft)
21.03.2019 02:08 22,1 C -2,1 C -3,9 C 5,5 C 48 % 74 % 1036,6 hPa 0,0 l/m 0,6 km/h (0 Bft) NW 315 -6,1 C -2,1 C 0,0 km/h (0 Bft)
21.03.2019 02:06 22,1 C -2,1 C -3,8 C 5,5 C 48 % 75 % 1036,6 hPa 0,0 l/m 0,6 km/h (0 Bft) NW 315 -5,9 C -2,1 C 0,0 km/h (0 Bft)
21.03.2019 02:04 22,1 C -2,0 C -3,8 C 5,5 C 48 % 75 % 1036,6 hPa 0,0 l/m 0,6 km/h (0 Bft) W-NW 292 -5,8 C -2,0 C 0,0 km/h (0 Bft)
21.03.2019 02:02 22,1 C -2,0 C -3,5 C 5,5 C 48 % 75 % 1036,6 hPa 0,0 l/m 0,6 km/h (0 Bft) SO 135 -5,8 C -2,0 C 0,0 km/h (0 Bft)
21.03.2019 02:00 22,1 C -2,0 C -3,5 C 5,7 C 48 % 74 % 1036,6 hPa 0,0 l/m 0,3 km/h (0 Bft) S-SO 157 -6,0 C -2,0 C 2,9 km/h (1 Bft)
21.03.2019 01:58 22,1 C -2,0 C -3,7 C 5,7 C 48 % 74 % 1036,6 hPa 0,0 l/m 0,2 km/h (0 Bft) SO 135 -6,0 C -2,0 C 2,5 km/h (1 Bft)
21.03.2019 01:56 22,1 C -2,0 C -3,7 C 5,7 C 48 % 74 % 1036,6 hPa 0,0 l/m 0,0 km/h (0 Bft) S-SO 157 -6,0 C -2,0 C 0,0 km/h (0 Bft)
21.03.2019 01:54 22,1 C -2,0 C -3,8 C 5,7 C 48 % 74 % 1036,6 hPa 0,0 l/m 0,0 km/h (0 Bft) SO 135 -6,0 C -2,0 C 0,0 km/h (0 Bft)
21.03.2019 01:52 22,1 C -1,9 C -3,8 C 5,7 C 48 % 74 % 1036,6 hPa 0,0 l/m 0,2 km/h (0 Bft) S-SW 202 -5,9 C -1,9 C 0,0 km/h (0 Bft)
21.03.2019 01:50 22,1 C -1,9 C -3,7 C 5,7 C 48 % 74 % 1036,6 hPa 0,0 l/m 0,2 km/h (0 Bft) S-SW 202 -5,9 C -1,9 C 0,0 km/h (0 Bft)
21.03.2019 01:48 22,1 C -1,9 C -3,5 C 5,7 C 48 % 74 % 1036,6 hPa 0,0 l/m 0,2 km/h (0 Bft) S-SW 202 -5,9 C -1,9 C 0,0 km/h (0 Bft)
21.03.2019 01:46 22,1 C -1,9 C -3,4 C 5,7 C 48 % 74 % 1036,6 hPa 0,0 l/m 0,2 km/h (0 Bft) SO 135 -5,9 C -1,9 C 0,0 km/h (0 Bft)
21.03.2019 01:44 22,1 C -1,9 C -3,4 C 5,7 C 48 % 74 % 1036,6 hPa 0,0 l/m 0,0 km/h (0 Bft) S-SW 202 -5,9 C -1,9 C 2,1 km/h (1 Bft)
21.03.2019 01:42 22,1 C -1,9 C -3,7 C 5,7 C 48 % 74 % 1036,6 hPa 0,0 l/m 0,0 km/h (0 Bft) N-NW 337 -5,9 C -1,9 C 0,0 km/h (0 Bft)
21.03.2019 01:40 22,1 C -1,7 C -3,9 C 5,7 C 48 % 74 % 1036,6 hPa 0,0 l/m 0,0 km/h (0 Bft) N-NW 337 -5,7 C -1,7 C 0,0 km/h (0 Bft)
21.03.2019 01:38 22,1 C -1,7 C -3,9 C 5,7 C 48 % 74 % 1036,6 hPa 0,0 l/m 0,0 km/h (0 Bft) N-NW 337 -5,7 C -1,7 C 0,0 km/h (0 Bft)
21.03.2019 01:36 22,1 C -1,7 C -3,9 C 5,8 C 48 % 74 % 1036,6 hPa 0,0 l/m 0,0 km/h (0 Bft) N 360 -5,7 C -1,7 C 0,0 km/h (0 Bft)
21.03.2019 01:34 22,1 C -1,6 C -3,9 C 5,8 C 48 % 74 % 1036,6 hPa 0,0 l/m 0,0 km/h (0 Bft) N 360 -5,6 C -1,6 C 0,0 km/h (0 Bft)
21.03.2019 01:32 22,1 C -1,6 C -3,9 C 5,8 C 48 % 74 % 1036,4 hPa 0,0 l/m 0,0 km/h (0 Bft) N-NW 337 -5,6 C -1,6 C 0,0 km/h (0 Bft)
21.03.2019 01:30 22,1 C -1,6 C -3,8 C 5,8 C 48 % 74 % 1036,4 hPa 0,0 l/m 0,0 km/h (0 Bft) N-NW 337 -5,6 C -1,6 C 0,0 km/h (0 Bft)
21.03.2019 01:28 22,1 C -1,6 C -3,7 C 5,8 C 48 % 74 % 1036,4 hPa 0,0 l/m 0,0 km/h (0 Bft) S-SO 157 -5,6 C -1,6 C 0,0 km/h (0 Bft)
21.03.2019 01:26 22,1 C -1,6 C -3,7 C 5,8 C 48 % 74 % 1036,4 hPa 0,0 l/m 0,0 km/h (0 Bft) S-SO 157 -5,6 C -1,6 C 0,0 km/h (0 Bft)
21.03.2019 01:24 22,1 C -1,7 C -3,5 C 5,8 C 48 % 74 % 1036,4 hPa 0,0 l/m 0,0 km/h (0 Bft) S-SO 157 -5,7 C -1,7 C 0,0 km/h (0 Bft)
21.03.2019 01:22 22,1 C -1,7 C -3,4 C 5,8 C 48 % 74 % 1036,4 hPa 0,0 l/m 0,0 km/h (0 Bft) S-SO 157 -5,7 C -1,7 C 0,0 km/h (0 Bft)
21.03.2019 01:20 22,1 C -1,7 C -3,5 C 5,8 C 48 % 73 % 1036,4 hPa 0,0 l/m 0,0 km/h (0 Bft) S-SO 157 -5,9 C -1,7 C 0,0 km/h (0 Bft)
21.03.2019 01:18 22,1 C -1,7 C -3,4 C 5,8 C 48 % 73 % 1036,4 hPa 0,0 l/m 0,0 km/h (0 Bft) S 180 -5,9 C -1,7 C 0,0 km/h (0 Bft)
21.03.2019 01:16 22,1 C -1,7 C -3,5 C 5,8 C 48 % 73 % 1036,4 hPa 0,0 l/m 0,0 km/h (0 Bft) S 180 -5,9 C -1,7 C 0,0 km/h (0 Bft)
21.03.2019 01:14 22,1 C -1,7 C -3,7 C 5,8 C 48 % 73 % 1036,4 hPa 0,0 l/m 0,0 km/h (0 Bft) SW 225 -5,9 C -1,7 C 0,0 km/h (0 Bft)
21.03.2019 01:12 22,1 C -1,7 C -3,7 C 5,9 C 48 % 73 % 1036,6 hPa 0,0 l/m 0,0 km/h (0 Bft) SW 225 -5,9 C -1,7 C 0,0 km/h (0 Bft)
21.03.2019 01:10 22,1 C -1,7 C -3,5 C 5,9 C 48 % 73 % 1036,6 hPa 0,0 l/m 0,0 km/h (0 Bft) W-SW 247 -5,9 C -1,7 C 0,0 km/h (0 Bft)
21.03.2019 01:08 22,1 C -1,6 C -3,3 C 5,9 C 48 % 73 % 1036,6 hPa 0,0 l/m 0,0 km/h (0 Bft) S-SO 157 -5,8 C -1,6 C 0,0 km/h (0 Bft)
21.03.2019 01:06 22,1 C -1,6 C -3,3 C 5,9 C 48 % 73 % 1036,6 hPa 0,0 l/m 0,0 km/h (0 Bft) S-SO 157 -5,8 C -1,6 C 0,0 km/h (0 Bft)
21.03.2019 01:04 22,1 C -1,6 C -3,2 C 5,9 C 48 % 73 % 1036,6 hPa 0,0 l/m 0,0 km/h (0 Bft) S-SO 157 -5,8 C -1,6 C 0,0 km/h (0 Bft)
21.03.2019 01:02 22,1 C -1,6 C -3,2 C 5,9 C 48 % 73 % 1036,6 hPa 0,0 l/m 0,0 km/h (0 Bft) S-SO 157 -5,8 C -1,6 C 0,0 km/h (0 Bft)
21.03.2019 01:00 22,1 C -1,6 C -3,2 C 5,9 C 48 % 73 % 1036,6 hPa 0,0 l/m 0,0 km/h (0 Bft) S-SO 157 -5,8 C -1,6 C 0,0 km/h (0 Bft)
21.03.2019 00:58 22,1 C -1,6 C -3,2 C 5,9 C 48 % 73 % 1036,6 hPa 0,0 l/m 0,0 km/h (0 Bft) S-SO 157 -5,8 C -1,6 C 0,0 km/h (0 Bft)
21.03.2019 00:56 22,1 C -1,6 C -3,2 C 5,9 C 48 % 73 % 1036,6 hPa 0,0 l/m 0,0 km/h (0 Bft) S-SO 157 -5,8 C -1,6 C 0,0 km/h (0 Bft)
21.03.2019 00:54 22,1 C -1,6 C -3,2 C 5,9 C 48 % 73 % 1036,6 hPa 0,0 l/m 0,0 km/h (0 Bft) SO 135 -5,8 C -1,6 C 0,0 km/h (0 Bft)
21.03.2019 00:52 22,1 C -1,6 C -3,2 C 5,9 C 48 % 73 % 1036,6 hPa 0,0 l/m 0,0 km/h (0 Bft) S-SO 157 -5,8 C -1,6 C 0,0 km/h (0 Bft)
21.03.2019 00:50 22,1 C -1,6 C -3,2 C 5,9 C 48 % 73 % 1036,6 hPa 0,0 l/m 0,0 km/h (0 Bft) S-SO 157 -5,8 C -1,6 C 0,0 km/h (0 Bft)
21.03.2019 00:48 22,1 C -1,6 C -3,3 C 6,0 C 48 % 73 % 1036,6 hPa 0,0 l/m 0,0 km/h (0 Bft) SW 225 -5,8 C -1,6 C 0,0 km/h (0 Bft)
21.03.2019 00:46 22,1 C -1,6 C -3,8 C 6,0 C 48 % 72 % 1036,6 hPa 0,0 l/m 0,0 km/h (0 Bft) W 270 -6,0 C -1,6 C 0,0 km/h (0 Bft)
21.03.2019 00:44 22,1 C -1,6 C -3,8 C 6,0 C 48 % 72 % 1036,6 hPa 0,0 l/m 0,0 km/h (0 Bft) S-SW 202 -6,0 C -1,6 C 0,0 km/h (0 Bft)
21.03.2019 00:42 22,1 C -1,6 C -3,7 C 6,0 C 48 % 72 % 1036,6 hPa 0,0 l/m 0,0 km/h (0 Bft) S-SW 202 -6,0 C -1,6 C 0,0 km/h (0 Bft)
21.03.2019 00:40 22,1 C -1,6 C -3,7 C 6,0 C 48 % 72 % 1036,6 hPa 0,0 l/m 0,0 km/h (0 Bft) S-SO 157 -6,0 C -1,6 C 0,0 km/h (0 Bft)
21.03.2019 00:38 22,1 C -1,6 C -3,8 C 6,0 C 48 % 72 % 1036,6 hPa 0,0 l/m 0,0 km/h (0 Bft) S-SO 157 -6,0 C -1,6 C 0,0 km/h (0 Bft)
21.03.2019 00:36 22,1 C -1,5 C -3,8 C 6,0 C 48 % 72 % 1036,6 hPa 0,0 l/m 0,0 km/h (0 Bft) S-SO 157 -5,9 C -1,5 C 0,0 km/h (0 Bft)
21.03.2019 00:34 22,2 C -1,5 C -3,7 C 6,0 C 48 % 72 % 1036,6 hPa 0,0 l/m 0,0 km/h (0 Bft) S-SO 157 -5,9 C -1,5 C 0,0 km/h (0 Bft)
21.03.2019 00:32 22,1 C -1,3 C -3,5 C 6,0 C 48 % 72 % 1036,6 hPa 0,0 l/m 0,0 km/h (0 Bft) S-SO 157 -5,7 C -1,3 C 0,0 km/h (0 Bft)
21.03.2019 00:30 22,1 C -1,3 C -3,5 C 5,9 C 48 % 72 % 1036,6 hPa 0,0 l/m 0,0 km/h (0 Bft) S-SO 157 -5,7 C -1,3 C 0,0 km/h (0 Bft)
21.03.2019 00:28 22,1 C -1,3 C -3,4 C 6,0 C 48 % 72 % 1036,6 hPa 0,0 l/m 0,0 km/h (0 Bft) S-SO 157 -5,7 C -1,3 C 0,0 km/h (0 Bft)
21.03.2019 00:26 22,1 C -1,2 C -3,3 C 6,1 C 48 % 72 % 1036,6 hPa 0,0 l/m 0,0 km/h (0 Bft) S-SO 157 -5,6 C -1,2 C 0,0 km/h (0 Bft)
21.03.2019 00:24 22,1 C -1,2 C -3,2 C 6,0 C 48 % 72 % 1036,6 hPa 0,0 l/m 0,0 km/h (0 Bft) S-SO 157 -5,6 C -1,2 C 0,0 km/h (0 Bft)
21.03.2019 00:22 22,2 C -1,2 C -3,0 C 6,0 C 48 % 72 % 1036,6 hPa 0,0 l/m 0,0 km/h (0 Bft) S-SO 157 -5,6 C -1,2 C 0,0 km/h (0 Bft)
21.03.2019 00:20 22,2 C -1,2 C -2,9 C 6,0 C 48 % 72 % 1036,6 hPa 0,0 l/m 0,0 km/h (0 Bft) S-SO 157 -5,6 C -1,2 C 0,0 km/h (0 Bft)
21.03.2019 00:18 22,1 C -1,2 C -2,9 C 6,1 C 48 % 72 % 1036,6 hPa 0,0 l/m 0,0 km/h (0 Bft) S 180 -5,6 C -1,2 C 0,0 km/h (0 Bft)
21.03.2019 00:16 22,2 C -1,2 C -2,9 C 6,1 C 48 % 72 % 1036,6 hPa 0,0 l/m 0,0 km/h (0 Bft) S-SO 157 -5,6 C -1,2 C 0,0 km/h (0 Bft)
21.03.2019 00:14 22,2 C -1,2 C -2,9 C 6,1 C 48 % 72 % 1036,6 hPa 0,0 l/m 0,0 km/h (0 Bft) S-SO 157 -5,6 C -1,2 C 0,0 km/h (0 Bft)
21.03.2019 00:12 22,1 C -1,1 C -2,9 C 6,2 C 48 % 72 % 1036,7 hPa 0,0 l/m 0,0 km/h (0 Bft) SO 135 -5,5 C -1,1 C 0,0 km/h (0 Bft)
21.03.2019 00:10 22,2 C -1,1 C -3,3 C 6,2 C 48 % 72 % 1036,7 hPa 0,0 l/m 0,0 km/h (0 Bft) W-SW 247 -5,5 C -1,1 C 0,0 km/h (0 Bft)
21.03.2019 00:08 22,2 C -1,1 C -3,3 C 6,2 C 48 % 72 % 1036,7 hPa 0,0 l/m 0,0 km/h (0 Bft) W-SW 247 -5,5 C -1,1 C 0,0 km/h (0 Bft)
21.03.2019 00:06 22,2 C -1,1 C -3,3 C 6,2 C 48 % 72 % 1036,7 hPa 0,0 l/m 0,0 km/h (0 Bft) W-SW 247 -5,5 C -1,1 C 0,0 km/h (0 Bft)
21.03.2019 00:04 22,2 C -1,1 C -3,3 C 6,2 C 48 % 72 % 1036,7 hPa 0,0 l/m 0,0 km/h (0 Bft) W-SW 247 -5,5 C -1,1 C 0,0 km/h (0 Bft)
21.03.2019 00:02 22,2 C -1,1 C -3,3 C 6,2 C 48 % 72 % 1036,7 hPa 0,0 l/m 0,0 km/h (0 Bft) W-SW 247 -5,5 C -1,1 C 0,0 km/h (0 Bft)
21.03.2019 00:00 22,2 C -1,1 C -3,3 C 6,2 C 48 % 72 % 1036,7 hPa 0,0 l/m 0,0 km/h (0 Bft) W-SW 247 -5,5 C -1,1 C 0,0 km/h (0 Bft)
_ Min-Zeit 02:58 04:48 04:46 05:08 00:00 00:00 04:34 - 00:00 - - 04:48 04:48 00:00
Minimum _ 22,0 C -3,9 C -5,1 C 4,8 C 48 % 72 % 1035,8 hPa - 0,0 km/h (0 Bft) - - -7,0 C -3,9 C 0,0 km/h (0 Bft)
_ Max-Zeit 00:00 00:00 00:12 00:00 02:58 05:04 02:34 00:00 03:22 - - 00:00 00:00 03:20
Maximum _ 22,2 C -1,1 C -2,9 C 6,2 C 49 % 80 % 1036,8 hPa 0,0 l/m 2,4 km/h
N-NW (1 Bft)
- - -5,5 C -1,1 C 5,2 km/h
NO (1 Bft)
Durchschnitt _ 22,1 C -2,5 C -4,0 C 5,5 C 48 % 76 % 1036,5 hPa #0,0 l/m 0,2 km/h (0 Bft) N - -6,2 C -2,5 C 0,4 km/h (0 Bft)